(199408) = 2006 CC27 = 2007 MJ7

Discovered at Kitt Peak on 2006-02-02 by Spacewatch.

Orbit

Orbit type: Main Belt

Note: WebGL enabled browser required.

epoch2023-09-13.0
epoch JD2460200.5
perihelion date2021-04-22.68194
perihelion JD2459327.18194
argument of perihelion (°)135.84703
ascending node (°)111.41632
inclination (°)2.81383
eccentricity0.0570148
perihelion distance (AU)2.6158906
Tisserand w.r.t. Jupiter3.3
ΔV w.r.t. Earth (km/sec)10.1
semimajor axis (AU)2.7740527
mean anomaly (°)186.29630
mean daily motion (°/day)0.21332010
aphelion distance (AU)2.932
period (years)4.62
P-vector [x]-0.38571413
P-vector [y]-0.85950637
P-vector [z]-0.33537056
Q-vector [x]0.92148576
Q-vector [y]-0.34088250
Q-vector [z]-0.18618032
absolute magnitude16.42
phase slope0.15
uncertainty0
referenceMPEC 2024-A34
observations used337
oppositions17
arc length (days)8848
first opposition used1999
last opposition used2024
residual rms (arc-secs)0.71
perturbers coarse indicatorM-v
perturbers precise indicator003Ek
first observation date used1999-10-13.0
last observation date used2024-01-03.0
computer nameMPCLINUX
JD of orbit computation2456700.496631
perihelion JD uncertainty (days)1.9759E-04
argument of perihelion uncertainty (°)1.0738E-04
ascending node uncertainty (°)9.8781E-05
inclination uncertainty (°)3.9743E-06
eccentricity uncertainty 3.9724E-08
perihelion distance uncertainty (AU)1.0945E-07
Minimum Orbit Intersection Distances (in AU)
for orbit epoch: 2460200.5, reference: E2024-A34
Mercury2.15195
Venus1.89072
Earth1.60211
Mars1.04323
Jupiter2.06298
Saturn6.1291
Uranus15.6841
Neptune26.9329

Observations

349 total observations over interval: 1999 10 13.24713 – 2024 01 03.353001
These data are available for download (format description).

Date (UT) J2000 RA J2000 Dec Magn Location Ref
1999 10 13.24713 00 58 10.12 +01 34 36.9 19.8 V 691 – Steward Observatory, Kitt Peak-Spacewatch MPS 212000
1999 10 13.26793 00 58 09.07 +01 34 30.7 19.8 V 691 – Steward Observatory, Kitt Peak-Spacewatch MPS 212000
1999 10 13.28914 00 58 07.95 +01 34 24.3 20.5 V 691 – Steward Observatory, Kitt Peak-Spacewatch MPS 212000
2004 10 23.28845 03 25 20.38 +14 46 01.7 20.8 V 691 – Steward Observatory, Kitt Peak-Spacewatch MPS 212000
2004 10 23.32574 03 25 18.65 +14 45 54.6 20.8 V 691 – Steward Observatory, Kitt Peak-Spacewatch MPS 212000
2004 10 23.35770 03 25 17.22 +14 45 49.1 20.6 V 691 – Steward Observatory, Kitt Peak-Spacewatch MPS 212000
2004 11 04.41065 03 15 24.97 +14 07 25.9 20.4 V 291 – LPL/Spacewatch II MPS 212000
2004 11 04.41745 03 15 24.61 +14 07 24.5 20.3 V 291 – LPL/Spacewatch II MPS 212000
2004 11 04.42160 03 15 24.38 +14 07 23.8 20.4 V 291 – LPL/Spacewatch II MPS 212000
2004 12 13.11238 02 45 44.69 +12 33 42.1 21.0 V 691 – Steward Observatory, Kitt Peak-Spacewatch MPS 212000
2004 12 13.13022 02 45 44.19 +12 33 41.2 21.0 V 691 – Steward Observatory, Kitt Peak-Spacewatch MPS 212000
2004 12 13.14805 02 45 43.65 +12 33 40.7 20.7 V 691 – Steward Observatory, Kitt Peak-Spacewatch MPS 212000
2005 12 06.464707 09 42 40.907 +14 32 11.34 21.67 V 645 – Apache Point-Sloan Digital Sky Survey MPS 390241
2005 12 06.468179 09 42 40.958 +14 32 11.20 22.53   645 – Apache Point-Sloan Digital Sky Survey MPS 390241
2006 01 20.44334 09 32 54.04 +16 12 21.4   291 – LPL/Spacewatch II MPS 212000
2006 01 20.44774 09 32 53.83 +16 12 22.8   291 – LPL/Spacewatch II MPS 212000
2006 01 20.45168 09 32 53.65 +16 12 23.8   291 – LPL/Spacewatch II MPS 212000
2006 02 02.16937 09 22 29.87 +17 15 20.7 20.4 V 691 – Steward Observatory, Kitt Peak-Spacewatch MPS 163353
2006 02 02.18676 09 22 28.93 +17 15 25.9 20.3 V 691 – Steward Observatory, Kitt Peak-Spacewatch MPS 163353
2006 02 02.20415 09 22 27.98 +17 15 31.4 20.3 V 691 – Steward Observatory, Kitt Peak-Spacewatch MPS 163353
2006 02 07.33018 09 17 53.77 +17 41 12.3 20.1 V G96 – Mt. Lemmon Survey MPS 163353
2006 02 07.33844 09 17 53.34 +17 41 14.7 19.9 V G96 – Mt. Lemmon Survey MPS 163353
2006 02 07.34648 09 17 52.90 +17 41 17.1 19.8 V G96 – Mt. Lemmon Survey MPS 163353
2007 03 16.50649 16 27 59.36 -18 37 01.7 20.0 V G96 – Mt. Lemmon Survey MPS 212039
2007 03 16.51108 16 27 59.50 -18 37 01.3 20.2 V G96 – Mt. Lemmon Survey MPS 212039
2007 03 16.51562 16 27 59.68 -18 37 01.5 20.2 V G96 – Mt. Lemmon Survey MPS 212039
2007 03 16.52021 16 27 59.86 -18 37 01.4 20.1 V G96 – Mt. Lemmon Survey MPS 212039
2007 04 19.42271 16 33 46.87 -18 27 29.7 20.7 V G96 – Mt. Lemmon Survey MPS 212039
2007 04 19.42943 16 33 46.72 -18 27 29.0 20.4 V G96 – Mt. Lemmon Survey MPS 212039
2007 04 19.43611 16 33 46.58 -18 27 28.8 20.3 V G96 – Mt. Lemmon Survey MPS 212039
2007 04 19.44279 16 33 46.44 -18 27 28.4 20.5 V G96 – Mt. Lemmon Survey MPS 212039
2007 05 10.42222 16 22 10.16 -17 57 56.8 19.7 V G96 – Mt. Lemmon Survey MPS 212039
2007 05 10.42829 16 22 09.91 -17 57 56.4 20.0 V G96 – Mt. Lemmon Survey MPS 212039
2007 05 10.43434 16 22 09.58 -17 57 56.0 19.7 V G96 – Mt. Lemmon Survey MPS 212039
2007 05 10.44030 16 22 09.30 -17 57 54.9 19.8 V G96 – Mt. Lemmon Survey MPS 212039
2007 05 25.36873 16 09 21.31 -17 32 22.7 19.4 V G96 – Mt. Lemmon Survey MPS 212039
2007 05 25.37439 16 09 21.02 -17 32 21.7 19.5 V G96 – Mt. Lemmon Survey MPS 212039
2007 05 25.38034 16 09 20.66 -17 32 21.0 19.6 V G96 – Mt. Lemmon Survey MPS 212039
2007 05 25.38588 16 09 20.37 -17 32 20.7 19.5 V G96 – Mt. Lemmon Survey MPS 212039
2007 06 18.30355 15 50 04.69 -17 03 48.9 20.2 V 691 – Steward Observatory, Kitt Peak-Spacewatch MPS 211398
2007 06 18.32118 15 50 03.99 -17 03 48.4 20.1 V 691 – Steward Observatory, Kitt Peak-Spacewatch MPS 211398
2007 06 18.34225 15 50 03.18 -17 03 47.3 20.7 V 691 – Steward Observatory, Kitt Peak-Spacewatch MPS 211398
2007 06 22.24057 15 47 48.25 -17 02 31.1 20.2 V 691 – Steward Observatory, Kitt Peak-Spacewatch MPS 211398
2007 06 22.25817 15 47 47.61 -17 02 30.6 20.3 V 691 – Steward Observatory, Kitt Peak-Spacewatch MPS 211398
2007 06 22.27577 15 47 47.04 -17 02 30.7 20.4 V 691 – Steward Observatory, Kitt Peak-Spacewatch MPS 211398
2008 08 21.40592 23 55 30.85 -04 17 04.9 20.5 V 691 – Steward Observatory, Kitt Peak-Spacewatch MPS 254524
2008 08 21.42348 23 55 30.27 -04 17 10.0 20.4 V 691 – Steward Observatory, Kitt Peak-Spacewatch MPS 254524
2008 08 21.44104 23 55 29.65 -04 17 14.8 20.6 V 691 – Steward Observatory, Kitt Peak-Spacewatch MPS 254524
2008 09 23.27764 23 31 31.98 -07 16 39.5 20.3 V G96 – Mt. Lemmon Survey MPS 256740
2008 09 23.28500 23 31 31.62 -07 16 41.6 20.4 V G96 – Mt. Lemmon Survey MPS 256740
2008 09 23.29223 23 31 31.26 -07 16 43.8 20.4 V G96 – Mt. Lemmon Survey MPS 256740
2008 09 23.29954 23 31 30.93 -07 16 46.1 20.5 V G96 – Mt. Lemmon Survey MPS 256740
2008 09 29.28440 23 27 02.05 -07 45 11.6 21.3 V 703 – Catalina Sky Survey MPS 257984
2008 09 29.29220 23 27 01.69 -07 45 12.7 20.9 V 703 – Catalina Sky Survey MPS 257984
2008 09 29.30014 23 27 01.44 -07 45 14.2 20.6 V 703 – Catalina Sky Survey MPS 257984
2008 09 29.30801 23 27 01.18 -07 45 18.4 21.3 V 703 – Catalina Sky Survey MPS 257984
2009 11 24.40174 05 39 31.74 +21 02 33.5 20.9 V 691 – Steward Observatory, Kitt Peak-Spacewatch MPS 306518
2009 11 24.41953 05 39 30.82 +21 02 33.2 20.8 V 691 – Steward Observatory, Kitt Peak-Spacewatch MPS 306518
2009 11 24.43732 05 39 29.94 +21 02 32.8 20.7 V 691 – Steward Observatory, Kitt Peak-Spacewatch MPS 306518
2010 02 19.13869 04 55 46.12 +21 38 00.0 21.1 V G96 – Mt. Lemmon Survey MPS 316469
2010 02 19.14403 04 55 46.27 +21 38 00.6 21.5 V G96 – Mt. Lemmon Survey MPS 316469
2010 02 19.14941 04 55 46.38 +21 38 00.3 20.6 V G96 – Mt. Lemmon Survey MPS 316469
2010 02 19.15482 04 55 46.45 +21 38 01.7 21.8 V G96 – Mt. Lemmon Survey MPS 316469
2011 02 23.27584 12 00 49.64 +03 52 46.6 20.5 V 691 – Steward Observatory, Kitt Peak-Spacewatch MPS 371865
2011 02 23.29356 12 00 49.00 +03 52 52.3 20.1 V 691 – Steward Observatory, Kitt Peak-Spacewatch MPS 371865
2011 02 23.31130 12 00 48.35 +03 52 58.6 20.1 V 691 – Steward Observatory, Kitt Peak-Spacewatch MPS 371865
2011 03 04.38513 11 54 47.05 +04 43 11.2 19.6 V 703 – Catalina Sky Survey MPS 373226
2011 03 04.39623 11 54 46.58 +04 43 16.4 19.5 V 703 – Catalina Sky Survey MPS 373226
2011 03 04.40730 11 54 45.97 +04 43 19.7 19.1 V 703 – Catalina Sky Survey MPS 373226
2011 03 04.41843 11 54 45.50 +04 43 23.2 20.3 V 703 – Catalina Sky Survey MPS 373226
2011 03 06.39638 11 53 17.26 +04 54 56.9 20.3 V G96 – Mt. Lemmon Survey MPS 374645
2011 03 06.40215 11 53 16.98 +04 54 59.1 20.5 V G96 – Mt. Lemmon Survey MPS 374645
2011 03 06.40790 11 53 16.72 +04 55 00.8 20.4 V G96 – Mt. Lemmon Survey MPS 374645
2011 03 06.41366 11 53 16.44 +04 55 03.0 20.1 V G96 – Mt. Lemmon Survey MPS 374645
2011 03 09.20225 11 51 07.95 +05 11 34.2 20.1 V 691 – Steward Observatory, Kitt Peak-Spacewatch MPS 374645
2011 03 09.21993 11 51 07.12 +05 11 40.3 19.8 V 691 – Steward Observatory, Kitt Peak-Spacewatch MPS 374645
2011 03 09.23764 11 51 06.24 +05 11 46.7 20.1 V 691 – Steward Observatory, Kitt Peak-Spacewatch MPS 374645
2011 03 09.48486 11 50 54.410 +05 13 16.07 20.4 r F51 – Pan-STARRS 1, Haleakala MPS 387690
2011 03 09.49599 11 50 53.857 +05 13 20.05 20.3 r F51 – Pan-STARRS 1, Haleakala MPS 387690
2011 03 09.51222 11 50 53.066 +05 13 25.97 20.7 g F51 – Pan-STARRS 1, Haleakala MPS 387691
2011 03 24.19602 11 39 01.36 +06 37 49.4 20.0 V 703 – Catalina Sky Survey MPS 376929
2011 03 24.20226 11 39 01.15 +06 37 52.8 19.1 V 703 – Catalina Sky Survey MPS 376929
2011 03 24.20856 11 39 00.75 +06 37 52.9 19.1 V 703 – Catalina Sky Survey MPS 376929
2011 03 24.21485 11 39 00.46 +06 37 56.0 18.7 V 703 – Catalina Sky Survey MPS 376929
2011 04 02.30138 11 32 09.230 +07 21 49.13 20.7 w F51 – Pan-STARRS 1, Haleakala MPS 378426
2011 04 02.31650 11 32 08.569 +07 21 53.15 20.9 w F51 – Pan-STARRS 1, Haleakala MPS 378426
2011 04 02.34780 11 32 07.196 +07 22 01.10 20.7 w F51 – Pan-STARRS 1, Haleakala MPS 378426
2012 06 14.46050 19 36 05.994 -20 50 53.42 20.7 w F51 – Pan-STARRS 1, Haleakala MPS 427145
